Meteo Giornale » Osservazioni meteo Gran Bretagna » Benson

ore: 15:50 - Osservazioni Meteo Benson
Lat. 51° 37' N Lon. 1° 5' W Alt. 63 metri s.l.m.

coperto Europe/London

20 °C

Coperto

Temp. 24 Ore

11 °C

21 °C

Sud/Sud-Est

18.5 Km/h

Dew point 12 °C

Umidità 59 %

Visibilità  10 Km

Il sole sorge alle ore 06:41

Il sole tramonta alle ore 19:16

Data e Ora Cielo e Fenomeni T °C DP °C Um. % Pres. hPa Vis. km Vento km/h
Oggi h: 15:50 coperto Coperto 20 12 59 1012 10 S/SE 18.5
Oggi h: 13:50 molto_nuvoloso Molto Nuvoloso 20 11 56 1013 10 S 18.5
Oggi h: 12:50 nuvoloso Nuvoloso 20 12 59 1014 10 S 13
Oggi h: 12:20 molto_nuvoloso Molto Nuvoloso 19 12 63 1014 10 S 13
Oggi h: 11:50 molto_nuvoloso Molto Nuvoloso 19 12 63 1014 10 S 18.5
Oggi h: 11:20 molto_nuvoloso Molto Nuvoloso 18 12 67 1014 10 S 18.5
Oggi h: 10:50 molto_nuvoloso Molto Nuvoloso 18 13 72 1014 10 S 16.7
Oggi h: 10:20 molto_nuvoloso Molto Nuvoloso 17 13 77 1014 10 S 14.8
Oggi h: 09:20 nuvoloso Nuvoloso 15 12 82 1014 10 S 13
Oggi h: 08:50 molto_nuvoloso Molto Nuvoloso 15 13 87 1014 10 S 11.1
Oggi h: 07:50 molto_nuvoloso Molto Nuvoloso 14 13 93 1014 10 S 13
Oggi h: 06:50 foschia Foschia 13 13 100 1014 8 S/SE 7.4
Oggi h: 05:50 molto_nuvoloso Molto Nuvoloso 13 12 93 1014 8 S 7.4
Oggi h: 04:50 coperto Coperto 13 13 100 1014 3 S/SE 11.1
Oggi h: 03:50 molto_nuvoloso Molto Nuvoloso 13 12 93 1015 4 S 14.8
Oggi h: 02:50 molto_nuvoloso Molto Nuvoloso 12 12 100 1015 10 S 11.1
Oggi h: 00:50 sereno Sereno 11 11 100 1016 10 S 7.4
Ieri h: 23:50 sereno Sereno 12 10 87 1016 10 S/SE 9.3
Ieri h: 22:50 poco_nuvoloso Poco Nuvoloso 13 12 93 1017 10 S 9.3
Ieri h: 20:50 nuvoloso Nuvoloso 16 14 87 1017 10 S 11.1
Ieri h: 19:50 nuvoloso Nuvoloso 17 14 82 1016 10 S 13
Ieri h: 18:21 poco_nuvoloso Poco Nuvoloso 20 12 59 1016 10 S/SO 11.1
Ieri h: 17:50 poco_nuvoloso Poco Nuvoloso 21 12 56 1016 10 S/SO 14.8